カタログに戻る

STARLINK-35414

運用中通信SSO
NORAD 65798·PAYLOAD·🇺🇸 United States

打ち上げ Sep 26, 2025 から Vandenberg Space Force Base

Loading…

次のパス (今後24時間)

TLE

最新Source: CelesTrak SupGP

元期: Sep 14, 2026, 22:58 UTC

1 65798C 25218H   26257.95743056  .00049275  00000+0  15298-2 0  2574
2 65798  97.2842 115.4711 0001760  98.3530  73.8934 15.33409695    11

AllMySatでSTARLINK-35414をリアルタイム追跡

Download on the App Store